This demonstration page uses our WeatherBlox Daily Observations layout. Learn more.

Left ArrowRight Arrow

Hourly Observations for May 17, 2020

Temp ( °F °C ) Dew Point ( °F °C ) Humidity (%) Winds ( mph kmh ) Pressure ( in mb ) Visibility ( mi km ) Precip ( " mm )
12:53 am 00:53 Clear 69 20.6 54 12.2 59 59 E 7 11 29.81 1009 10 16 0.00 0.00
1:53 am 01:53 Clear 68 20 55 12.8 63 63 ESE 7 11 29.82 1010 10 16 0.00 0.00
2:53 am 02:53 Clear 67 19.4 55 12.8 66 66 ESE 9 15 29.81 1010 10 16 0.00 0.00
3:53 am 03:53 Clear 66 18.9 55 12.8 68 68 E 10 17 29.81 1010 10 16 0.00 0.00
4:53 am 04:53 Clear 66 18.9 55 12.8 68 68 ESE 10 17 29.82 1010 10 16 0.00 0.00
5:53 am 05:53 Clear 65 18.3 55 12.8 70 70 ESE 8 13 29.84 1011 10 16 0.00 0.00
6:53 am 06:53 Clear 63 17.2 55 12.8 76 76 ESE 8 13 29.85 1011 10 16 0.00 0.00
7:53 am 07:53 Sunny 64 17.8 55 12.8 73 73 ESE 10 17 29.88 1012 10 16 0.00 0.00
8:53 am 08:53 Sunny 70 21.1 56 13.3 61 61 ESE 12 19 29.90 1013 10 16 0.00 0.00
9:53 am 09:53 Sunny 75 23.9 57 13.9 54 54 SE 14 22 29.92 1013 10 16 0.00 0.00
10:53 am 10:53 Sunny 79 26.1 58 14.4 49 49 ESE 15 24 29.91 1013 10 16 0.00 0.00
11:53 am 11:53 Sunny 82 27.8 55 12.8 40 40 ESE 14 22 29.91 1013 10 16 0.00 0.00
12:53 pm 12:53 Sunny 85 29.4 54 12.2 35 35 SSE 16 26 29.90 1012 10 16 0.00 0.00
1:53 pm 13:53 Sunny 87 30.6 53 11.7 31 31 S 15 24 29.87 1012 10 16 0.00 0.00
2:53 pm 14:53 Sunny 90 32.2 52 11.1 27 27 SE 16 26 29.85 1011 10 16 0.00 0.00
3:53 pm 15:53 Sunny 91 32.8 51 10.6 26 26 S 13 20 29.82 1010 10 16 0.00 0.00
4:53 pm 16:53 Sunny 93 33.9 50 10 23 23 SSE 15 24 29.78 1008 10 16 0.00 0.00
5:53 pm 17:53 Sunny 93 33.9 47 8.3 21 21 SE 12 19 29.77 1008 10 16 0.00 0.00
6:53 pm 18:53 Sunny 92 33.3 46 7.8 21 21 S 10 17 29.76 1008 10 16 0.00 0.00
7:53 pm 19:53 Sunny 91 32.8 47 8.3 22 22 S 10 17 29.75 1008 10 16 0.00 0.00
8:53 pm 20:53 Clear 86 30 48 8.9 27 27 SE 10 17 29.77 1008 10 16 0.00 0.00
9:53 pm 21:53 Clear 82 27.8 49 9.4 32 32 SSE 10 17 29.77 1008 10 16 0.00 0.00
10:53 pm 22:53 Clear 81 27.2 50 10 34 34 SSE 14 22 29.78 1008 10 16 0.00 0.00
11:53 pm 23:53 Clear 79 26.1 50 10 36 36 SSE 12 19 29.79 1009 10 16 0.00 0.00

Powered by AerisWeather